THOR AGENA D R/B, 733

Orbit data source: Space-Track

THOR AGENA D R/B, 733 is space debris in SSO originally from a launch on Sun, 19 Jan 1964 UTC launched from the Air Force Western Test Range (AFWTR). Debris objects in space refer to the collection of defunct objects orbiting the Earth. Examples of debris include non-operational satellites, rocket bodies, and fragments generated from explosions, collisions, or faulty payload assembly.

Loading next visibility...
Identifier
733, 1964-002A
Orbit
SSO
Country
Flag of USUS
Related business
Manufacturer
LMSC
Mission
Spacecraft
Bus & Motor
AGENA D, Unknown motor
Mass
600 kg wet, 600 kg dry
Launch date (UTC)
1964-01-19 (62 years ago)
Launch vehicle
Unknown
Launch site
Air Force Western Test Range (AFWTR)
Object type
Payload
Rocket body
Debris
Shape & HBR
Cyl + 1 Nozzle, 3.1 m
Radar Cross Section
8.306 m², Large (>1 m²)

Expand to show TLE details & history
Last TLE update: 10 hours ago

TLE from 10 hours ago
0 THOR AGENA D R/B
1 00733U 64002A   25258.59244307  .00000223  00000-0  96899-4 0  9993
2 00733  99.1210 257.4367 0033804  49.4168 310.9949 14.33873894213204
Epoch: 2025-09-15T14:13Z
TLE epoch observation values (Epoch: 2025-09-15T14:13:07.081Z)
Latitude
0.00007°
Longitude
49.3623°
Altitude
765.904 km
Speed
7.48 km/s
True Right ascension
17h 09m 44s
True Declination
0° 00' 00"
Sunlit
Object was in daylight at epoch
Visualization orbit readout
Latitude
Unknown
Longitude
Unknown
Altitude
Unknown
Speed
Unknown
Apparent Right ascension
Unknown
Apparent Declination
Unknown
Sunlit
N/A
Visualization observer readout
Local Sidereal Time
17:09:31
Azimuth
Unknown
Elevation
Unknown
Doppler factor
Unknown
Orbital elements
Apogee altitude
800.155 km
Perigee altitude
751.788 km
Semi-major axis
7,154.108 km
Eccentricity
0.00338
Inclination
99.121°
RAAN
257.4367°
Arg. of periapsis
49.4168°
True anomaly
310.70172°
Mean anomaly
310.9949°
Eccentric anomaly
310.84839°
Mean motion
3.58682 °/min
Orbital period
100.37 mins
BSTAR
0.000096899
Loading maneuver chart data...
Computing Atmospheric mass density...
Loading historical data...
Loading historical data...
Loading historical data...
Loading historical data...
Loading historical data...
Loading historical data...
Loading historical data...
Other satellites on launch #2 in the year 1964 (1964-01-19 UTC)

Documentation

Showing up to 5 results
|